Hyannis, MA

7:00 AM EDT on September 24, 2017 (GMT -0400)
Barnstable Municipal-Boardman-Polando Field

Weather History for KHYA - October, 2012

Change the Weather History Date:

Tuesday, October 2, 2012

  Actual Average Record
Temperature  
Mean Temperature 62 °F -  
Max Temperature 72 °F 65 °F 82 °F (1986)
Min Temperature 52 °F 48 °F 33 °F (1992)
Degree Days  
Heating Degree Days 3    
Growing Degree Days 12 (Base 50)    
Moisture  
Dew Point 57 °F    
Average Humidity 84    
Maximum Humidity 100    
Minimum Humidity 53    
Precipitation  
Precipitation 0.00 in - - ()
Sea Level Pressure  
Sea Level Pressure 30.02 in    
Wind  
Wind Speed 4 mph (SW)    
Max Wind Speed 10 mph    
Max Gust Speed -    
Visibility 10 miles    
Events Rain    
Averages and records for this station are not official NWS values.
T = Trace of Precipitation, MM = Missing Value Source: NWS Daily Summary

Daily Weather History Graph

Daily Weather History Graph

Search for Another Location

Airport or City:

Trip Planner

Search our weather history database for the weather conditions in past years. The results will help you decide how hot, cold, wet, or windy it might be!

Date:

Astronomy

Oct. 02, 2012 Rise Set
Actual Time 6:39 AM EDT 6:20 PM EDT
Civil Twilight 6:11 AM EDT 6:48 PM EDT
Nautical Twilight 5:39 AM EDT 7:20 PM EDT
Astronomical Twilight 5:07 AM EDT 7:52 PM EDT
Moon 7:28 PM EDT (10/2) 9:06 AM EDT (10/2)
Length of Visible Light 12h 36m
Length of Day
11h 40m
Waning Gibbous, 94% of the Moon is Illuminated
Oct 2
Waning Gibbous
Oct 8
Last Quarter
Oct 15
New
Oct 21
First Quarter
Oct 29
Full

Hourly Weather History & Observations

Time (EDT) Temp. Dew Point Humidity Pressure Visibility Wind Dir Wind Speed Gust Speed Precip Events Conditions
12:56 AM 53.1 °F 53.1 °F 100% 29.96 in 10.0 mi SW 3.5 mph - N/A   Clear
1:56 AM 53.1 °F 52.0 °F 96% 29.96 in 10.0 mi West 3.5 mph - N/A   Clear
2:56 AM 52.0 °F 51.1 °F 97% 29.95 in 10.0 mi Calm Calm - N/A   Clear
3:56 AM 55.9 °F 53.1 °F 90% 29.97 in 10.0 mi West 5.8 mph - N/A   Clear
4:56 AM 57.0 °F 54.0 °F 89% 29.98 in 10.0 mi West 3.5 mph - N/A   Clear
5:56 AM 57.9 °F 55.0 °F 90% 30.00 in 10.0 mi WSW 5.8 mph - N/A   Overcast
6:56 AM 57.9 °F 55.0 °F 90% 30.01 in 10.0 mi Calm Calm - N/A   Overcast
7:56 AM 60.1 °F 55.9 °F 86% 30.04 in 10.0 mi Calm Calm - N/A   Mostly Cloudy
8:56 AM 63.0 °F 55.9 °F 78% 30.04 in 10.0 mi WSW 5.8 mph - N/A   Scattered Clouds
9:56 AM 66.0 °F 57.0 °F 73% 30.04 in 10.0 mi SSW 4.6 mph - N/A   Partly Cloudy
10:56 AM 69.1 °F 54.0 °F 58% 30.04 in 10.0 mi SW 6.9 mph - N/A   Clear
11:56 AM 70.0 °F 55.0 °F 59% 30.04 in 10.0 mi SSW 9.2 mph - N/A   Clear
12:56 PM 72.0 °F 54.0 °F 53% 30.03 in 10.0 mi SSW 10.4 mph - N/A   Clear
1:56 PM 69.1 °F 57.9 °F 68% 30.03 in 10.0 mi South 6.9 mph - N/A   Mostly Cloudy
2:56 PM 68.0 °F 57.9 °F 70% 30.03 in 10.0 mi South 3.5 mph - N/A   Mostly Cloudy
4:56 PM 66.0 °F 60.1 °F 81% 30.04 in 10.0 mi South 4.6 mph - 0.00 in Rain Light Rain
5:56 PM 66.0 °F 61.0 °F 84% 30.04 in 10.0 mi South 3.5 mph - 0.00 in   Scattered Clouds
6:56 PM 64.9 °F 62.1 °F 90% 30.03 in 10.0 mi Calm Calm - 0.00 in Rain Light Rain
7:56 PM 64.9 °F 61.0 °F 87% 30.03 in 10.0 mi South 3.5 mph - 0.00 in Rain Light Rain
8:56 PM 64.9 °F 62.1 °F 90% 30.05 in 10.0 mi Calm Calm - 0.00 in   Overcast
9:39 PM 62.6 °F 62.6 °F 100% 30.04 in 10.0 mi Calm Calm - N/A   Mostly Cloudy
10:56 PM 61.0 °F 57.9 °F 90% 30.07 in 10.0 mi North 5.8 mph - 0.00 in   Overcast
11:06 PM 60.8 °F 57.2 °F 88% 30.06 in 10.0 mi NNE 5.8 mph - N/A   Overcast
11:24 PM 60.8 °F 59.0 °F 94% 30.05 in 10.0 mi NE 5.8 mph - N/A   Overcast
11:56 PM 61.0 °F 57.9 °F 90% 30.04 in 10.0 mi East 4.6 mph - N/A   Overcast